Regional Weather Roundup
Issued by NWS Cleveland, OH

Home | Current Version | Previous Version | Graphics & Text | Print | Product List | Glossary On
Versions: 1 2 3 4 5 6 7 8 9 10 11 12 13 14 15 16 17 18 19 20 21 22 23 24 25 26 27 28 29 30 31 32 33 34 35 36 37 38 39 40 41 42 43 44 45 46 47 48 49 50
000
ASUS41 KCLE 060800
RWRCLE
OHIO REGIONAL WEATHER ROUNDUP
NATIONAL WEATHER SERVICE WILMINGTON, OH
400 AM EDT WED MAY 06 2015

NOTE: "FAIR" INDICATES FEW OR NO CLOUDS BELOW 12,000 FEET WITH NO
SIGNIFICANT WEATHER AND/OR OBSTRUCTIONS TO VISIBILITY.

OHZ001>008-015>018-024>027-034-035-043-044-060900-
   NORTHWEST OHIO

CITY           SKY/WX    TMP DP  RH WIND       PRES   REMARKS
DEFIANCE       FOG       53  52  96 E6        30.22S VSB 3/4
FINDLAY        FOG       54  52  93 E6        30.21S VSB 3/4
TOLEDO EXPRESS CLOUDY    51  50  96 E7        30.22F FOG
TOLEDO EXEC    CLOUDY    51  49  92 NE7       30.24S FOG
LIMA           FOG       54  54 100 E7        30.21F VSB 1/4
$$

OHZ009>014-019>023-028>033-038-089-060900-
   NORTHEAST OHIO

CITY           SKY/WX    TMP DP  RH WIND       PRES   REMARKS
CLE-HOPKINS    FOG       56  55  97 N5        30.25R VSB 1
CLE-LAKEFRONT  CLOUDY    51  49  92 N8        30.23R FOG
CUY CO. ARPT   NOT AVBL
LORAIN-ELYRIA  PTCLDY    52  52 100 N6        30.23S FOG
ASHTABULA      RAIN      54  53  97 CALM      30.23S FOG
AKRON-CANTON   FOG       59  56  89 SE6       30.22F VSB 1
WOOSTER        NOT AVBL
MANSFIELD      CLEAR     54  54 100 E5        30.22S FOG
YOUNGSTOWN     MOCLDY    58  57  97 E6        30.22F FOG
$$

OHZ042-051>053-060>062-070>072-077>081-060900-
  SOUTHWEST OHIO

CITY           SKY/WX    TMP DP  RH WIND       PRES   REMARKS
CINC-COVINGTON CLEAR     59  54  83 CALM      30.20S
CINC-LUNKEN    CLEAR     55  55 100 CALM      30.21R FOG
HAMILTON       CLEAR     55  53  93 CALM      30.21R
DAYTON         NOT AVBL
WRIGHT-PAT AFB NOT AVBL
DAYTON GENERAL CLEAR     63  53  70 CALM      30.20R
WILMINGTON     CLEAR     61  52  72 S3        30.21R
$$

OHZ036-037-039>041-045>050-054>059-063>069-073>076-082>088-060900-
  CENTRAL AND SOUTHEAST OHIO

CITY           SKY/WX    TMP DP  RH WIND       PRES   REMARKS
COLUMBUS       PTCLDY    58  55  90 CALM      30.19S
OSU AIRPORT    CLEAR     56  54  93 CALM      30.20S FOG
BOLTON FIELD   NOT AVBL
RICKENBACK AFB NOT AVBL
NEWARK         FOG       53  52  96 CALM      30.20R VSB 1/4
MARION         CLOUDY    58  56  93 CALM      30.21S FOG
LANCASTER      CLEAR     55  52  89 CALM      30.20S
ZANESVILLE     PTCLDY    56  54  93 CALM      30.20R FOG
NEW PHILLY     FOG       62  59  90 VRB3      30.22F VSB 1/2
$$



USA.gov is the U.S. government's official web portal to all federal, state and local government web resources and services.